This demonstration page uses our WeatherBlox Daily Observations layout. Learn more.

Hourly Observations for December 21, 2015

Temp ( °F °C ) Dew Point ( °F °C ) Humidity (%) Winds ( mph kmh ) Pressure ( in mb ) Visibility ( mi km ) Precip ( " mm )
12:15 am 00:15 Cloudy 30 -1.2 26 -3.3 86 86 NNW 16 26 29.88 1012 10 16.0934 0 0
12:35 am 00:35 Cloudy 30 -1.1 26 -3.1 86 86 NNW 15 24 29.88 1012 10 16.0934 0 0
12:55 am 00:55 Mostly Cloudy 30 -1.1 27 -3 87 87 NNW 13 20 29.88 1012 10 16.0934 0 0
1:15 am 01:15 Mostly Cloudy 30 -1.2 27 -2.9 88 88 NNW 13 20 29.88 1012 10 16.0934 0 0
1:35 am 01:35 Cloudy 30 -1 27 -2.6 89 89 NNW 15 24 29.88 1012 10 16.0934 0 0
1:55 am 01:55 Cloudy 31 -0.8 28 -2.5 88 88 N 14 22 29.88 1012 10 16.0934 0 0
2:15 am 02:15 Cloudy 30 -1 27 -2.7 88 88 N 13 20 29.88 1012 10 16.0934 0 0
2:35 am 02:35 Cloudy 30 -1 27 -2.6 89 89 NNW 15 24 29.88 1012 10 16.0934 0 0
2:55 am 02:55 Cloudy 31 -0.8 28 -2.5 88 88 NW 13 20 29.88 1012 10 16.0934 0 0
3:15 am 03:15 Cloudy 30 -1.2 27 -2.7 90 90 N 12 19 29.88 1012 10 16.0934 0 0
3:35 am 03:35 Cloudy 30 -1.3 27 -2.6 91 91 NNW 12 19 29.88 1012 10 16.0934 0 0
3:55 am 03:55 Cloudy 30 -1.2 28 -2.5 91 91 NNW 10 17 29.88 1012 10 16.0934 0 0
4:15 am 04:15 Cloudy 30 -1.1 28 -2.5 90 90 NW 10 17 29.88 1012 10 16.0934 0 0
4:35 am 04:35 Cloudy 30 -1.2 28 -2.5 91 91 NNW 9 15 29.91 1013 10 16.0934 0 0
4:55 am 04:55 Cloudy 30 -1.3 27 -2.6 91 91 NNW 14 22 29.88 1012 10 16.0934 0 0
5:15 am 05:15 Cloudy 29 -1.5 27 -2.7 92 92 NNW 10 17 29.88 1012 10 16.0934 0 0
5:35 am 05:35 Cloudy 29 -1.5 27 -2.7 92 92 NNW 6 9 29.91 1013 10 16.0934 0 0
5:55 am 05:55 Cloudy 30 -1.3 28 -2.5 92 92 WNW 10 17 29.91 1013 10 16.0934 0 0
6:15 am 06:15 Cloudy 29 -1.6 27 -2.8 92 92 NNW 7 11 29.91 1013 10 16.0934 0 0
6:35 am 06:35 Cloudy 29 -1.8 27 -3 92 92 NNW 7 11 29.91 1013 10 16.0934 0 0
6:55 am 06:55 Cloudy 29 -1.8 27 -3 92 92 WNW 9 15 29.97 1015 10 16.0934 0 0
7:15 am 07:15 Cloudy 28 -2 27 -3 93 93 WNW 7 11 29.97 1015 10 16.0934 0 0
7:35 am 07:35 Cloudy 28 -2 27 -3 93 93 WNW 5 7 29.97 1015 10 16.0934 0 0
7:55 am 07:55 Cloudy 28 -2 27 -3 93 93 NW 6 9 29.97 1015 10 16.0934 0 0
8:15 am 08:15 Cloudy 28 -2 27 -3 93 93 W 7 11 30 1016 10 16.0934 0 0
8:35 am 08:35 Cloudy 28 -2.1 27 -3 94 94 NW 8 13 30 1016 10 16.0934 0 0
8:55 am 08:55 Cloudy 28 -2 27 -2.8 94 94 W 7 11 30 1016 10 16.0934 0 0
9:15 am 09:15 Cloudy 28 -2 27 -2.8 94 94 W 6 9 30.03 1017 10 16.0934 0 0
9:35 am 09:35 Cloudy 29 -1.6 27 -2.6 93 93 NW 3 6 30.03 1017 10 16.0934 0 0
9:55 am 09:55 Cloudy 30 -1.3 27 -2.6 91 91 Calm 30 1016 10 16.0934 0 0
10:15 am 10:15 Cloudy 30 -1.2 27 -2.6 90 90 WNW 5 7 30 1016 10 16.0934 0 0
10:35 am 10:35 Cloudy 31 -0.6 28 -2.2 89 89 NNW 3 6 30 1016 10 16.0934 0 0
10:55 am 10:55 Partly Cloudy 31 -0.6 28 -2.4 88 88 NW 3 6 30 1016 10 16.0934 0 0
11:15 am 11:15 Partly Cloudy 32 0 28 -2 87 87 SW 3 6 30 1016 10 16.0934 0 0
11:35 am 11:35 Hazy 33 0.8 28 -2 82 82 SW 7 11 29.97 1015 4 6.43736 0 0
11:55 am 11:55 Partly Cloudy 35 1.6 28 -2 77 77 SSW 10 17 29.94 1014 10 16.0934 0 0
12:15 pm 12:15 Cloudy 35 1.5 29 -1.9 78 78 SW 7 11 29.94 1014 10 16.0934 0 0
12:35 pm 12:35 Cloudy 35 1.6 29 -1.4 81 81 SW 6 9 29.91 1013 10 16.0934 0 0
12:55 pm 12:55 Mostly Cloudy 36 2 30 -1.1 80 80 SW 7 11 29.91 1013 10 16.0934 0 0
1:15 pm 13:15 Partly Cloudy 37 3 30 -0.9 76 76 SW 8 13 29.91 1013 10 16.0934 0 0
1:35 pm 13:35 Partly Cloudy 38 3.3 31 -0.5 76 76 WSW 6 9 29.88 1012 10 16.0934 0 0
1:55 pm 13:55 Sunny 40 4.7 31 -0.5 69 69 WSW 6 9 29.85 1011 10 16.0934 0 0
2:15 pm 14:15 Sunny 42 5.8 31 -0.8 63 63 WSW 8 13 29.85 1011 10 16.0934 0 0
2:35 pm 14:35 Sunny 44 6.5 31 -0.4 62 62 WSW 8 13 29.85 1011 10 16.0934 0 0
2:55 pm 14:55 Sunny 45 7.1 30 -0.9 57 57 WSW 10 17 29.85 1011 10 16.0934 0 0
3:15 pm 15:15 Sunny 47 8.2 30 -0.9 53 53 WSW 12 19 29.83 1010 10 16.0934 0 0
3:35 pm 15:35 Sunny 47 8.3 30 -1.2 52 52 WSW 12 19 29.8 1009 10 16.0934 0 0
3:55 pm 15:55 Sunny 47 8.5 29 -1.4 50 50 WSW 9 15 29.8 1009 10 16.0934 0 0
4:15 pm 16:15 Sunny 47 8.5 30 -1 52 52 SW 6 9 29.8 1009 10 16.0934 0 0
4:35 pm 16:35 Sunny 47 8.5 28 -2.1 48 48 W 8 13 29.8 1009 10 16.0934 0 0
4:55 pm 16:55 Sunny 45 7.1 27 -3 49 49 W 8 13 29.83 1010 10 16.0934 0 0
5:15 pm 17:15 Clear 42 5.6 26 -3.1 54 54 W 8 13 29.83 1010 10 16.0934 0 0
5:35 pm 17:35 Clear 40 4.3 26 -3.5 57 57 W 6 9 29.83 1010 10 16.0934 0 0
5:55 pm 17:55 Clear 38 3.6 25 -4 58 58 W 7 11 29.83 1010 10 16.0934 0 0
6:15 pm 18:15 Clear 36 2.1 25 -4.1 64 64 W 7 11 29.85 1011 10 16.0934 0 0
6:35 pm 18:35 Clear 35 1.5 24 -4.3 66 66 W 8 13 29.88 1012 10 16.0934 0 0
6:55 pm 18:55 Clear 36 2.1 25 -4.1 64 64 WNW 7 11 29.85 1011 10 16.0934 0 0
7:15 pm 19:15 Clear 33 0.7 25 -4 71 71 WNW 7 11 29.85 1011 10 16.0934 0 0
7:35 pm 19:35 Clear 34 0.9 24 -4.2 69 69 W 7 11 29.85 1011 10 16.0934 0 0
7:55 pm 19:55 Clear 34 0.9 24 -4.2 69 69 WNW 6 9 29.85 1011 10 16.0934 0 0
8:15 pm 20:15 Clear 33 0.7 24 -4.5 69 69 WNW 5 7 29.85 1011 10 16.0934 0 0
8:35 pm 20:35 Clear 32 0 24 -4.5 72 72 WNW 5 7 29.88 1012 10 16.0934 0 0
8:55 pm 20:55 Clear 32 0 24 -4.5 72 72 WNW 6 9 29.88 1012 10 16.0934 0 0
9:15 pm 21:15 Clear 31 -0.5 24 -4.7 74 74 NW 3 6 29.88 1012 10 16.0934 0 0
9:35 pm 21:35 Clear 31 -0.7 24 -4.7 75 75 Calm 29.88 1012 10 16.0934 0 0
9:55 pm 21:55 Clear 29 -1.6 24 -4.5 81 81 Calm 29.88 1012 10 16.0934 0 0
10:15 pm 22:15 Clear 31 -0.5 24 -4.7 74 74 S 8 13 29.88 1012 10 16.0934 0 0
10:35 pm 22:35 Clear 29 -1.8 22 -5.5 76 76 S 3 6 29.88 1012 10 16.0934 0 0
10:55 pm 22:55 Clear 27 -2.8 22 -5.4 83 83 S 6 9 29.88 1012 10 16.0934 0 0
11:15 pm 23:15 Clear 28 -2.3 22 -5.4 80 80 S 5 7 29.85 1011 10 16.0934 0 0
11:35 pm 23:35 Clear 31 -0.8 24 -4.6 76 76 S 5 7 29.85 1011 10 16.0934 0 0
11:55 pm 23:55 Clear 30 -1.1 23 -5 75 75 S 6 9 29.85 1011 10 16.0934 0 0

Powered by AerisWeather